Home   Weather   Rotterdam   Past weeks
Flag for Netherlands

Past Weather in Rotterdam, Netherlands — Yesterday and Last 2 Weeks

Now
61 °F

Passing clouds.


Feels Like: 61 °F
Forecast: 59 / 47 °F
Wind: 14 mph from West

Location: Rotterdam Zestienhoven Airport

Current Time: May 27, 2019 at 11:33:47 am

Latest Report: May 27, 2019 at 10:55 am


Visibility: N/A

Pressure: 29.83 "Hg

Humidity: 55%

Dew Point: 45 °F

Location of RotterdamLocation

Past Weather in Rotterdam — Graph

°F

Rotterdam Temperature Yesterday

Maximum temperature yesterday: 68 °F (at 12:25 pm)
Minimum temperature yesterday: 48 °F (at 2:25 am)
Average temperature yesterday: 60 °F

High & Low Weather Summary for the Past Weeks

 TemperatureHumidityPressure
High70 °F (May 23, 6:25 pm)100% (May 13, 2:25 am)30.74 "Hg (May 13, 2:25 am)
Low36 °F (May 13, 5:55 am)28% (May 15, 3:55 pm)29.68 "Hg (May 18, 3:25 am)
Average55 °F73%30.07 "Hg
* Reported May 12 9:25 am — May 27 9:55 am, Rotterdam. Weather by CustomWeather, © 2019

Note: Actual official high and low records may vary slightly from our data, if they occured in-between our weather recording intervals... More about our weather records

Advertising

Rotterdam Weather History for the Previous 24 Hours

Scroll right to see more
 ConditionsComfort  
Time TempWeatherWind HumidityBarometerVisibility
9:55 am
Mon, May 27
61 °FClear.12 mph63%29.83 "HgN/A
9:25 am59 °FClear.9 mph63%29.83 "HgN/A
8:55 am59 °FClear.9 mph68%29.83 "HgN/A
8:25 am57 °FClear.8 mph77%29.83 "HgN/A
7:55 am55 °FClear.7 mph82%29.83 "HgN/A
7:25 am55 °FClear.6 mph77%29.80 "HgN/A
6:55 am54 °FClear.7 mph82%29.80 "HgN/A
6:25 am52 °FClear.6 mph88%29.80 "HgN/A
5:55 am50 °FClear.6 mph88%29.80 "HgN/A
5:25 am50 °FClear.6 mph88%29.80 "HgN/A
4:55 am50 °FClear.6 mph94%29.80 "HgN/A
4:25 am50 °FClear.5 mph94%29.80 "HgN/A
3:55 am50 °FCool.5 mph94%29.80 "HgN/A
2:55 am55 °FClear.6 mph88%29.80 "HgN/A
2:25 am55 °FPassing clouds.3 mph94%29.80 "HgN/A
1:55 am55 °FLight rain. Overcast.6 mph94%29.80 "HgN/A
1:25 am55 °FLow clouds.7 mph94%29.80 "HgN/A
12:55 am57 °FDrizzle. Mostly cloudy.13 mph94%29.80 "Hg4 mi
12:25 am57 °FPassing clouds.16 mph100%29.80 "HgN/A
11:55 pm
Sun, May 26
57 °FPassing clouds.14 mph100%29.80 "HgN/A
11:25 pm57 °FPassing clouds.14 mph100%29.80 "HgN/A
10:55 pm57 °FSprinkles. Passing clouds.14 mph100%29.80 "Hg4 mi
10:25 pm57 °FLight rain. Partly cloudy.17 mph100%29.80 "Hg4 mi
9:55 pm57 °FLight rain. Partly cloudy.18 mph94%29.80 "Hg4 mi
9:25 pm59 °FOvercast.16 mph88%29.80 "HgN/A
8:55 pm61 °FLight rain. Overcast.18 mph77%29.80 "HgN/A
7:55 pm63 °FClear.16 mph73%29.83 "HgN/A
7:25 pm64 °FClear.16 mph68%29.83 "HgN/A
6:55 pm64 °FClear.21 mph68%29.83 "HgN/A
6:25 pm66 °FClear.23 mph64%29.83 "HgN/A
5:55 pm66 °FClear.25 mph64%29.83 "HgN/A
5:25 pm66 °FClear.23 mph64%29.86 "HgN/A
4:55 pm68 °FClear.25 mph60%29.86 "HgN/A
4:25 pm68 °FClear.21 mph56%29.86 "HgN/A
3:55 pm68 °FClear.20 mph60%29.86 "HgN/A
3:25 pm66 °FClear.21 mph64%29.86 "HgN/A
2:55 pm66 °FClear.21 mph68%29.89 "HgN/A
2:25 pm68 °FPassing clouds.18 mph64%29.89 "HgN/A
1:55 pm66 °FClear.20 mph68%29.89 "HgN/A
1:25 pm66 °FPassing clouds.16 mph68%29.89 "HgN/A
12:55 pm68 °FScattered clouds.21 mph64%29.89 "HgN/A
12:25 pm68 °FPassing clouds.16 mph64%29.92 "HgN/A
11:55 am66 °FBroken clouds.14 mph68%29.92 "HgN/A
11:25 am66 °FPartly sunny.15 mph68%29.92 "HgN/A
Weather by CustomWeather, © 2019

See weather overview